EGKH weather

Lashenden (Headcorn) Airfield
Maidstone, England, United Kingdom

Public forecast

Using degrees Celsius for public forecast. Weather courtesy of forecast.io.

METAR (pilot weather report)

Closest report is Lydd Airport, 16.5 nm (30.5 km) SE. Retrieved 2018/12/19 15:20 UTC (0 seconds ago):

EGMD 191520Z 24008KT 9999 VCSH FEW021 SCT027 BKN032 09/07 Q1007

TAF (pilot weather forecast)

Forecast is more than 12 hours old.

Closest forecast is Southend Airport, 25.0 nm (46.2 km) N. Retrieved 2016/04/18 18:00 UTC (3 years ago):

TAF EGMC 181658Z 1818/1903 28008KT 9999 BKN045